[[{"header":{"parameterUnit":"m.s-1","parameterCategory":1,"la1":30.2991,"la2":30.254,"lo1":-89.0895,"lo2":-89.0444,"dy":0.0017,"dx":0.0017,"nx":28,"ny":28,"refTime":"2025-01-16T03:00:00:Z","depth":0,"parameterNumber":2,"parameterNumberName":"U-component_of_WINDS"},"data":[0,0,0,0,0,0,0,0,0,0,0,0,0,0,0,0,0,0,0,0,0,0,0,0,0,0,0,0,0,0,0,0,0,0,0,0,0,0,0,0,0,0,0,0,0,0,0,0,0,0,0,0,0,0,0,0,0,0,1.261,1.2611,0,1.2693,1.2693,1.2694,1.2726,1.2726,1.2725,1.2725,1.2812,1.2815,1.2817,0,0,0,0,0,0,0,0,0,0,0,0,0,1.2483,1.2485,1.261,1.2611,1.2612,1.2692,1.2694,1.2695,1.2726,1.2726,1.2725,1.2725,1.2811,1.2814,1.2817,0,0,0,0,0,0,0,0,0,0,0,0,0,1.2549,1.2486,1.261,1.2637,1.2641,1.2692,1.2694,1.2695,1.2726,1.2726,1.2725,1.2725,1.281,1.2814,1.2818,1.2849,0,0,1.283,1.2831,0,0,0,0,0,0,0,0,1.2545,1.2554,1.2632,1.2635,1.2639,1.2698,1.2681,1.2747,1.2726,1.2694,1.2725,1.2725,1.2775,1.2782,1.2798,1.2853,1.2857,1.283,1.2832,1.2834,1.2835,0,0,0,0,0,0,0,1.2541,1.2551,1.2643,1.2633,1.2638,1.2647,1.2656,1.2693,1.2735,1.2696,1.2699,1.2708,1.2777,1.2794,1.28,1.2858,1.283,1.2833,1.2836,1.2837,1.2945,1.2946,0,0,0,0,0,0,1.2531,1.2546,1.264,1.2645,1.259,1.2649,1.2659,1.268,1.2735,1.2743,1.2708,1.2709,1.2788,1.2796,1.2803,1.2845,1.2834,1.2837,1.284,1.2945,1.2945,1.2946,0,0,0,0,0,0,1.2528,1.2539,1.2637,1.2597,1.261,1.2652,1.2675,1.2682,1.2699,1.2744,1.2752,1.2718,1.2788,1.2798,1.2838,1.2848,1.2839,1.2843,1.2944,1.2945,1.2946,1.2927,0,0,0,0,0,0,1.2525,1.2538,1.2549,1.2597,1.2612,1.2668,1.2675,1.2684,1.2705,1.2707,1.2755,1.2763,1.2788,1.2832,1.2842,1.2853,1.2846,1.2943,1.2944,1.2945,1.2926,1.2927,1.2927,0,0,0,0,0,1.252,1.2541,1.255,1.2561,1.2627,1.2669,1.2678,1.2706,1.2706,1.2719,1.2748,1.2762,1.2845,1.2836,1.2847,1.286,1.2943,1.2944,1.2945,1.2926,1.2927,1.2927,0,0,0,0,0,0,1.2494,1.2548,1.2558,1.2595,1.2627,1.2674,1.2691,1.2705,1.2738,1.2739,1.2773,1.2784,1.2821,1.2844,1.2833,1.2894,1.2895,1.2899,1.2877,1.2878,1.2878,1.2871,1.2849,0,0,0,0,0,1.2493,1.2522,1.2567,1.2595,1.2611,1.2648,1.2667,1.2686,1.2722,1.2736,1.2768,1.2802,1.2837,1.2858,1.2892,1.293,1.2942,1.2945,1.2945,1.2945,1.2948,1.2971,1.2973,1.295,1.295,1.295,0,0,1.249,1.2523,1.2539,1.2591,1.2618,1.2649,1.2659,1.2691,1.2714,1.2741,1.278,1.2805,1.2846,1.2885,1.2904,1.2906,1.2957,1.2946,1.2946,1.2949,1.2972,1.2974,1.2976,1.2951,1.2951,1.2951,0,0,1.2501,1.2529,1.2555,1.2583,1.2624,1.2648,1.2655,1.27,1.2718,1.2758,1.2778,1.2808,1.2865,1.2894,1.2916,1.294,1.2954,1.295,1.2951,1.2973,1.2975,1.2977,1.2986,1.2989,1.2953,1.2953,1.2953,0,1.2493,1.2539,1.2568,1.2598,1.2621,1.2646,1.2675,1.27,1.275,1.2766,1.2767,1.2841,1.2871,1.2918,1.2923,1.294,1.295,1.2945,1.2972,1.2974,1.2976,1.2986,1.2989,1.2952,1.2952,1.2952,1.2952,0,1.2528,1.2559,1.2576,1.2624,1.2649,1.2678,1.2712,1.2734,1.2751,1.2776,1.2817,1.2854,1.2896,1.2908,1.2925,1.2958,1.2958,1.2965,1.2967,1.2977,1.2987,1.299,1.2951,1.2951,1.2951,1.2951,0,0,1.2524,1.2588,1.2594,1.2616,1.2664,1.269,1.2721,1.2762,1.278,1.2815,1.2842,1.2892,1.2899,1.2924,1.2945,1.2964,1.2982,1.2969,1.2971,1.2971,1.3022,1.3016,1.302,1.2992,1.2992,1.2993,1.3018,0,1.2542,1.2598,1.2625,1.267,1.27,1.2725,1.2753,1.2786,1.281,1.2841,1.2868,1.2903,1.2909,1.2925,1.2945,1.2975,1.2992,1.2974,1.3019,1.302,1.3008,1.3024,1.3018,1.304,1.3022,1.3023,1.3023,0,1.257,1.2604,1.2651,1.2696,1.271,1.2734,1.2775,1.2803,1.2842,1.2858,1.2887,1.2907,1.2943,1.2942,1.2992,1.2979,1.2999,1.3017,1.3019,1.3024,1.3022,1.3031,1.3048,1.3051,1.3029,1.3029,1.3028,0,1.2563,1.2621,1.2657,1.2675,1.2729,1.2746,1.2769,1.2807,1.2831,1.2866,1.2882,1.2921,1.2943,1.2974,1.3005,1.3001,1.3053,1.3054,1.3068,1.3068,1.3078,1.3077,1.3099,1.309,1.309,1.309,1.309,0,1.2581,1.2609,1.2655,1.2677,1.271,1.2742,1.2774,1.28,1.2834,1.2862,1.2887,1.2913,1.2952,1.2984,1.3009,1.3047,1.3057,1.3072,1.3079,1.307,1.3068,1.3084,1.3084,1.3091,1.3091,1.3091,1.3091,0,1.2579,1.2611,1.2652,1.27,1.2712,1.2735,1.2776,1.2799,1.2825,1.2862,1.2872,1.2913,1.2952,1.2986,1.3038,1.3054,1.3094,1.3102,1.3081,1.3084,1.3097,1.3095,1.313,1.3137,1.3123,1.3123,1.3123,0,1.2588,1.261,1.266,1.2681,1.2704,1.2737,1.276,1.2794,1.2818,1.2864,1.2882,1.2923,1.2957,1.3018,1.3054,1.3094,1.3103,1.3112,1.3109,1.31,1.3104,1.3102,1.3105,1.3112,1.3112,1.3112,1.3112,0,1.2601,1.2616,1.2648,1.2687,1.2715,1.2748,1.2781,1.2797,1.2836,1.2862,1.2902,1.2929,1.2982,1.3022,1.3066,1.3092,1.3109,1.3113,1.3119,1.311,1.3098,1.3106,1.3081,1.3112,1.3112,1.3112,1.3112,1.3112,1.2605,1.2626,1.2665,1.2702,1.273,1.2761,1.2786,1.2815,1.2848,1.2893,1.2911,1.2952,1.2992,1.3053,1.3079,1.3112,1.3115,1.3123,1.3125,1.3126,1.3125,1.3092,1.312,1.312,1.3121,1.3121,1.3121,0,1.262,1.2646,1.2679,1.2725,1.2754,1.2767,1.2805,1.2829,1.2864,1.29,1.2933,1.298,1.3019,1.3058,1.31,1.312,1.3129,1.313,1.3129,1.3135,1.312,1.3111,1.3122,1.3122,1.3122,1.3122,1.3122,1.3122,1.263,1.2668,1.2688,1.274,1.2767,1.2806,1.2827,1.2856,1.2885,1.2936,1.2968,1.2993,1.3031,1.3076,1.3114,1.3124,1.3139,1.3138,1.315,1.3136,1.3135,1.3135,1.3127,1.314,1.314,1.3162,1.3162,1.3163]},{"header":{"parameterUnit":"m.s-1","parameterCategory":1,"la1":30.2991,"la2":30.254,"lo1":-89.0895,"lo2":-89.0444,"dy":0.0017,"dx":0.0017,"nx":28,"ny":28,"refTime":"2025-01-16T03:00:00:Z","depth":0,"parameterNumber":3,"parameterNumberName":"V-component_of_WINDS"},"data":[0,0,0,0,0,0,0,0,0,0,0,0,0,0,0,0,0,0,0,0,0,0,0,0,0,0,0,0,0,0,0,0,0,0,0,0,0,0,0,0,0,0,0,0,0,0,0,0,0,0,0,0,0,0,0,0,0,0,-0.4895,-0.4895,0,-0.4845,-0.4845,-0.4844,-0.4882,-0.4883,-0.4885,-0.4887,-0.4833,-0.483,-0.4827,0,0,0,0,0,0,0,0,0,0,0,0,0,-0.5023,-0.5021,-0.4895,-0.4895,-0.4894,-0.4845,-0.4845,-0.4844,-0.4881,-0.4883,-0.4885,-0.4887,-0.4834,-0.4831,-0.4827,0,0,0,0,0,0,0,0,0,0,0,0,0,-0.497,-0.502,-0.4895,-0.4907,-0.4907,-0.4845,-0.4845,-0.4844,-0.4881,-0.4883,-0.4886,-0.4888,-0.4835,-0.4831,-0.4827,-0.475,0,0,-0.4813,-0.4811,0,0,0,0,0,0,0,0,-0.4973,-0.4965,-0.4906,-0.4906,-0.4906,-0.4872,-0.487,-0.4812,-0.488,-0.4891,-0.4887,-0.4889,-0.4844,-0.4839,-0.4824,-0.4747,-0.4745,-0.4813,-0.481,-0.4808,-0.4807,0,0,0,0,0,0,0,-0.4977,-0.4968,-0.4875,-0.4905,-0.4905,-0.4915,-0.491,-0.486,-0.4854,-0.489,-0.4893,-0.4887,-0.4845,-0.4828,-0.4823,-0.4744,-0.4813,-0.4809,-0.4806,-0.4804,-0.4607,-0.4605,0,0,0,0,0,0,-0.4979,-0.497,-0.4877,-0.4874,-0.4947,-0.491,-0.4905,-0.4881,-0.4855,-0.4853,-0.4885,-0.4888,-0.4835,-0.4828,-0.4821,-0.4733,-0.4808,-0.4804,-0.4801,-0.461,-0.4607,-0.4604,0,0,0,0,0,0,-0.4982,-0.4971,-0.4879,-0.4923,-0.4912,-0.4906,-0.4878,-0.4878,-0.4862,-0.4851,-0.485,-0.4869,-0.4836,-0.4828,-0.4769,-0.4732,-0.4802,-0.4798,-0.4613,-0.4609,-0.4605,-0.4554,0,0,0,0,0,0,-0.4985,-0.4971,-0.4942,-0.4922,-0.4909,-0.4826,-0.4876,-0.4876,-0.4855,-0.4859,-0.4836,-0.4834,-0.4838,-0.4775,-0.4764,-0.4727,-0.4795,-0.4616,-0.4611,-0.4606,-0.4559,-0.4549,-0.454,0,0,0,0,0,-0.499,-0.4928,-0.494,-0.4928,-0.4872,-0.4824,-0.4817,-0.4823,-0.4851,-0.4822,-0.4816,-0.4835,-0.4737,-0.4769,-0.4757,-0.4718,-0.4618,-0.4612,-0.4607,-0.4563,-0.4551,-0.4541,0,0,0,0,0,0,-0.4941,-0.4925,-0.4938,-0.4868,-0.4848,-0.4831,-0.4793,-0.4809,-0.4779,-0.4785,-0.4793,-0.4788,-0.4727,-0.4716,-0.4751,-0.4645,-0.4683,-0.4674,-0.4654,-0.4642,-0.4633,-0.4637,-0.4791,0,0,0,0,0,-0.4922,-0.4885,-0.4873,-0.4812,-0.4801,-0.4799,-0.4778,-0.4785,-0.4764,-0.4755,-0.4744,-0.4722,-0.4687,-0.4664,-0.463,-0.4558,-0.4555,-0.4525,-0.4516,-0.4508,-0.4501,-0.4466,-0.4454,-0.4585,-0.4585,-0.4585,0,0,-0.4882,-0.4869,-0.4845,-0.4802,-0.4787,-0.4749,-0.4791,-0.4748,-0.472,-0.4748,-0.4693,-0.4684,-0.4661,-0.4596,-0.4566,-0.4585,-0.4465,-0.4501,-0.4495,-0.4492,-0.4459,-0.4446,-0.4435,-0.4581,-0.4581,-0.4582,0,0,-0.4792,-0.4777,-0.4727,-0.4712,-0.4689,-0.4689,-0.4677,-0.4659,-0.4655,-0.4599,-0.4621,-0.4588,-0.4526,-0.451,-0.4494,-0.4401,-0.4419,-0.439,-0.4341,-0.4307,-0.4297,-0.4288,-0.4257,-0.4246,-0.4383,-0.4383,-0.4383,0,-0.4745,-0.4689,-0.4698,-0.4655,-0.4637,-0.4663,-0.4613,-0.4597,-0.4564,-0.4552,-0.4573,-0.45,-0.4485,-0.4419,-0.4397,-0.4382,-0.437,-0.4393,-0.4297,-0.4288,-0.428,-0.4252,-0.424,-0.438,-0.438,-0.438,-0.4381,0,-0.4634,-0.4595,-0.4557,-0.4528,-0.4505,-0.4458,-0.4462,-0.4438,-0.4448,-0.4446,-0.4391,-0.4376,-0.4342,-0.4326,-0.4334,-0.4262,-0.4275,-0.4296,-0.4335,-0.4264,-0.4238,-0.4227,-0.4375,-0.4376,-0.4377,-0.4378,0,0,-0.4509,-0.4489,-0.4475,-0.4464,-0.4443,-0.4413,-0.4369,-0.4337,-0.4318,-0.4295,-0.426,-0.4209,-0.4231,-0.4212,-0.4219,-0.4188,-0.4121,-0.4215,-0.4214,-0.42,-0.4044,-0.4029,-0.4016,-0.4132,-0.413,-0.4128,-0.4047,0,-0.4419,-0.4343,-0.4353,-0.428,-0.4247,-0.4272,-0.4235,-0.4218,-0.4216,-0.4187,-0.4184,-0.4149,-0.4179,-0.4168,-0.4139,-0.4135,-0.409,-0.4141,-0.4101,-0.4099,-0.4108,-0.4001,-0.3984,-0.3908,-0.4036,-0.4034,-0.4033,0,-0.4303,-0.428,-0.4205,-0.4194,-0.418,-0.4146,-0.412,-0.4091,-0.4074,-0.4075,-0.4057,-0.407,-0.4027,-0.4066,-0.4009,-0.4044,-0.4028,-0.4024,-0.4021,-0.4019,-0.4063,-0.3998,-0.3883,-0.3873,-0.4016,-0.4017,-0.4019,0,-0.4223,-0.4173,-0.4123,-0.4112,-0.4096,-0.4072,-0.4065,-0.405,-0.4032,-0.4009,-0.3998,-0.397,-0.3955,-0.3933,-0.3939,-0.3967,-0.3882,-0.392,-0.3882,-0.3882,-0.3864,-0.3865,-0.3747,-0.385,-0.3851,-0.3851,-0.3851,0,-0.4123,-0.4077,-0.4087,-0.4056,-0.4007,-0.4018,-0.3969,-0.3964,-0.3952,-0.3922,-0.3941,-0.3912,-0.3921,-0.3893,-0.3897,-0.3851,-0.3843,-0.3844,-0.3846,-0.3843,-0.3843,-0.3834,-0.384,-0.3848,-0.3848,-0.3849,-0.3849,0,-0.4025,-0.4029,-0.3977,-0.3969,-0.3965,-0.3929,-0.3922,-0.3894,-0.3895,-0.3856,-0.3848,-0.3848,-0.3817,-0.3821,-0.3784,-0.3788,-0.3731,-0.3738,-0.3737,-0.374,-0.3703,-0.3707,-0.3576,-0.356,-0.3671,-0.367,-0.3669,0,-0.3961,-0.3927,-0.3916,-0.3898,-0.389,-0.386,-0.3843,-0.3854,-0.3835,-0.3816,-0.379,-0.3761,-0.3738,-0.3687,-0.3684,-0.3658,-0.3666,-0.3622,-0.3662,-0.3662,-0.3668,-0.3671,-0.3669,-0.3614,-0.3613,-0.3612,-0.3611,0,-0.3849,-0.3854,-0.3829,-0.3806,-0.3786,-0.3768,-0.3751,-0.3736,-0.3745,-0.3724,-0.3693,-0.3675,-0.3641,-0.3612,-0.3588,-0.3581,-0.3598,-0.3598,-0.3589,-0.3586,-0.3589,-0.359,-0.3718,-0.3601,-0.3602,-0.3603,-0.3603,-0.3604,-0.3768,-0.3741,-0.373,-0.3703,-0.3693,-0.3678,-0.3653,-0.3652,-0.3626,-0.36,-0.3608,-0.3574,-0.3561,-0.3531,-0.3521,-0.3495,-0.3511,-0.3496,-0.3493,-0.349,-0.3487,-0.3592,-0.349,-0.3491,-0.3491,-0.3491,-0.3491,0,-0.366,-0.3655,-0.363,-0.3609,-0.3588,-0.3608,-0.3592,-0.3573,-0.3543,-0.353,-0.3509,-0.3475,-0.3449,-0.3445,-0.3421,-0.3401,-0.3408,-0.3394,-0.3396,-0.3395,-0.3472,-0.3485,-0.3389,-0.3389,-0.3389,-0.3389,-0.3389,-0.3389,-0.3601,-0.3557,-0.3561,-0.3514,-0.3509,-0.3477,-0.3467,-0.3455,-0.3445,-0.3408,-0.3386,-0.3385,-0.3377,-0.3352,-0.333,-0.3329,-0.332,-0.3303,-0.3306,-0.3379,-0.3389,-0.3399,-0.3411,-0.3301,-0.3301,-0.3232,-0.3231,-0.3231]}]]